STARLINK-3250 (49749 NORAD) Tracking and Keplerian Element Data

This shows tracking and keplerian element data for the satellite.

Feedback or suggestion? Click here.




ElementValue
Catalog49749
NameSTARLINK-3250
Epoch Orbit130
Epoch Day140.58334491
Epoch Year2022
RAAN265.0739
Inclination53.2102
Eccentricity0.0001774
Argument of Perigee43.3432
Mean Anonmoly293.1245
Mean Motion15.0885127
Decay Rate-0.00033614
L11 49749U 21115AB 22140.58334491 -.00033614 00000+0 -21031-2 0 9996
L22 49749 53.2102 265.0739 0001774 43.3432 293.1245 15.08851270 1305

Live tracking and technical data element details for STARLINK-3250 (NORAD 49749). STARLINK-3250 can be tracked NOW for your location showing map with azimuth and elevation plus other details from your city location.

Track the satellite on the map from your city or location and see movement details for azimuth, elevation, latitude, longitude, range, height, and movement on the map or in text.







IsCatalogInMostPopularTable: catalog: 49749, numindb: 23
Update: records affected: 1



GetName: 49749 STARLINK-3250

Hit Count: updated at: Sun, 22 May 2022 04:21:39 GMT